Regional Weather Roundup
Issued by NWS

Home | Current Version | Previous Version | Graphics & Text | Print | Product List | Glossary On
Versions: 1 2 3 4 5 6 7 8 9 10 11 12 13 14 15 16 17 18 19 20 21 22 23 24 25 26 27 28 29 30 31 32 33 34 35 36 37 38 39 40 41 42 43 44 45 46 47 48 49 50
000
ASUS43 KFSD 221910
RWRSD

WEATHER ROUNDUP FOR SOUTH DAKOTA
NATIONAL WEATHER SERVICE SIOUX FALLS SD
100 PM CST SAT NOV 22 2014

NOTE: "FAIR" INDICATES FEW OR NO CLOUDS BELOW 12,000 FEET WITH NO
SIGNIFICANT WEATHER AND/OR OBSTRUCTIONS TO VISIBILITY.


SDZ001>005-009-010-012>017-222000-
NORTHWEST AND NORTH CENTRAL SOUTH DAKOTA

CITY           SKY/WX    TMP DP  RH WIND       PRES   REMARKS
BUFFALO          N/A     46  28  49 W13       29.33F
FAITH            N/A     43  29  57 S8        29.39F
MOBRIDGE       SUNNY     40  29  64 S9        29.38F
$$

SDZ012>016-024>037-041>051-057-063-072>074-222000-
SOUTHWEST AND SOUTH CENTRAL SOUTH DAKOTA

CITY           SKY/WX    TMP DP  RH WIND       PRES   REMARKS
RAPID CTY ARPT CLOUDY    55  26  32 W9        29.42F
PIERRE         MOSUNNY   40  30  67 SE3       29.41F
CUSTER         PTSUNNY   43  24  47 W10       29.48F
ELLSWORTH AFB  PTSUNNY   55  27  34 SW6       29.41F
PHILIP         MOSUNNY   59  29  31 SW17      29.42F
PINE RIDGE     CLOUDY    52  27  38 W12       29.51F
SPEARFISH      FAIR      50  25  37 SW16G25   29.41F
WINNER         FAIR      56  29  35 SW17      29.47F
$$

SDZ004>011-016>023-039-040-222000-
NORTHEAST SOUTH DAKOTA

CITY           SKY/WX    TMP DP  RH WIND       PRES   REMARKS
ABERDEEN       PTSUNNY   36  30  79 S10       29.48F
WATERTOWN      PTSUNNY   32  29  88 S17       29.52F WCI  21
SISSETON         N/A     37  31  78 SE8       29.52F
$$

SDZ017-020-022-023-036>040-048>070-222000-
SOUTHEAST SOUTH DAKOTA

CITY           SKY/WX    TMP DP  RH WIND       PRES   REMARKS
SIOUX FALLS    PTSUNNY   40  35  83 S12       29.60F
HURON          PTSUNNY   38  31  76 S13       29.49F
MITCHELL       PTSUNNY   43  33  68 S14       29.53F
YANKTON        SUNNY     52  34  50 S13       29.60F
$$

ABBREVIATIONS USED IN REMARKS
   TC - TEMPERATURE IN CELSIUS
  WCI - WIND CHILL INDEX
   HX - HEAT INDEX
  VSB - VISIBILITY




USA.gov is the U.S. government's official web portal to all federal, state and local government web resources and services.